Regional Weather Roundup
Issued by NWS Northern Indiana

Home | Current Version | Previous Version | Text Only | Print | Product List | Glossary Off
Versions: 1 2 3 4 5 6 7 8 9 10 11 12 13 14 15 16 17 18 19 20 21 22 23 24 25 26 27 28 29 30 31 32 33 34 35 36 37 38 39 40 41 42 43 44 45 46 47 48 49 50

000
ASUS43 KIWX 172300
RWRIWX

KIWX WEATHER ROUNDUP
NATIONAL WEATHER SERVICE NORTHERN INDIANA
700 PM EDT WED SEP 17 2014

NOTE: "FAIR" INDICATES FEW OR NO CLOUDS BELOW 12,000 FEET WITH NO
SIGNIFICANT WEATHER AND/OR OBSTRUCTIONS TO VISIBILITY.

* THESE STATIONS ARE NOT UNDER NWS QUALITY CONTROL. THEY ALSO MAY NOT
  REPORT WEATHER SUCH AS PRECIPITATION OR FOG.

INZ001>027-180000-
NORTHERN INDIANA

CITY           SKY/WX    TMP DP  RH WIND       PRES   REMARKS
VALPARAISO     CLEAR     66  50  56 CALM      29.98S
KNOX*          CLEAR     67  46  47 N7        29.97S
SOUTH BEND     CLEAR     65  45  48 N9        30.00S
ELKHART*       CLEAR     64  41  42 NW5       30.00R
GOSHEN         CLEAR     65  46  50 NW6       29.98S
WARSAW*        CLEAR     64  46  52 CALM      29.98F
ANGOLA*        CLEAR     64  55  72 W3        29.99R
FORT WAYNE     PTCLDY    66  51  58 W3        29.99S
PERU/GRISSOM   CLEAR     67  50  53 NW5       29.97S

$$
INZ028>050-180000-
CENTRAL INDIANA

CITY           SKY/WX    TMP DP  RH WIND       PRES   REMARKS
LAFAYETTE      CLEAR     67  50  54 CALM      29.97F
KOKOMO*        CLEAR     70  46  43 NW3       29.97F
MUNCIE*        CLEAR     66  49  54 CALM      29.98F
INDIANAPOLIS   MOCLDY    62  49  62 S5        29.97F

$$
MIZ043>046-050>051-056>058-064>065-071>073-077>080-180000-
SOUTHWEST LOWER MICHIGAN

CITY           SKY/WX    TMP DP  RH WIND       PRES   REMARKS
BATTLE CREEK   PTCLDY    64  46  52 NW10      29.99S
BENTON HARBOR  CLEAR     61  44  53 NW3       30.00S
COLDWATER*     CLEAR     64  48  56 CALM      29.99R
HILLSDALE*     PTCLDY    64  45  50 NW3       29.99S
HOLLAND        CLEAR     63  46  54 W5        30.00F
GRAND RAPIDS   PTCLDY    63  45  51 W8        29.99F
KALAMAZOO      PTCLDY    63  45  51 NW10      30.00S
STURGIS*         N/A     63  46  55 NW6       29.98S
THREE RIVERS*  FAIR      64  47  54 NW7       29.99S

$$
OHZ001>008-015>018-024>025-180000-
NORTHWEST OHIO

CITY           SKY/WX    TMP DP  RH WIND       PRES   REMARKS
DEFIANCE       CLEAR     66  46  48 CALM      29.98F
FINDLAY        PTCLDY    66  46  48 W5        29.98S
TOLEDO EXPRESS PTCLDY    66  44  45 W6        29.98S
TOLEDO METCALF CLEAR     65  45  48 W5        29.98S
LIMA           MOCLDY    64  52  64 CALM      29.99S

$$
&&


USA.gov is the U.S. government's official web portal to all federal, state and local government web resources and services.